Preview of NWS' New Version of Forecast
This preview is not operational and should not be used for support decisions.

Regional Weather Roundup (RWR)

Issued by National Weather Service (NWS)

                            
000
ASUS44 KMEG 190010
RWRTN 
TENNESSEE HOURLY STATE WEATHER ROUNDUP
NATIONAL WEATHER SERVICE MEMPHIS TN
600 PM CST MON FEB 18 2019

TNZ002-004-019-021-049-052-054-088>092-190100-
WEST TENNESSEE
  
CITY           SKY/WX    TMP DP  RH WIND       PRES   REMARKS
MEMPHIS INTL   CLOUDY    38  25  59 N13       30.39R WCI  30          
NWS MEMPHIS      N/A     37 N/A N/A MISG        N/A                   
JACKSON        FAIR      37  26  64 N10       30.42R WCI  30          
DYERSBURG      FAIR      35  24  64 N14       30.45  WCI  26          
COVINGTON      CLEAR     37  27  65 NE12      30.42R WCI  30          
UNION CITY     CLEAR     34  25  69 N15       30.44R WCI  24          
PARIS          CLEAR     34  23  64 N10       30.43R WCI  26          
SELMER         CLEAR     37  25  60 N9        30.37R WCI  31          
SAVANNAH       CLEAR     39  27  60 N9        30.37R WCI  33          
$$

TNZ008-025-027-028-033-062-065-066-190100-
NORTH MIDDLE TENNESSEE
  
CITY           SKY/WX    TMP DP  RH WIND       PRES   REMARKS
NASHVILLE      MOCLDY    37  23  56 N9        30.42R WCI  30          
DICKSON        CLEAR     34  23  64 NE7       30.39R WCI  28          
CLARKSVILLE    FAIR      35  23  61 N6        30.44R WCI  30          
LEBANON        CLEAR     36  25  64 N6        30.41S WCI  31          
SMYRNA         FAIR      36  25  64 N13       30.43R WCI  27          
MURFREESBORO   CLEAR     37  25  60 N10       30.40R WCI  30          
COOKEVILLE     CLEAR     34  25  69 VRB6      30.38R WCI  29          
LIVINGSTON     CLOUDY    32  23  69 N7        30.39R WCI  26          
GALLATIN       PTCLDY    36  25  64 N7        30.46R WCI  30          
CROSSVILLE     FAIR      31  23  72 N12       30.35R WCI  22          
ROCKWOOD       CLEAR     34  25  69 N10G20    30.33R WCI  26          
$$

TNZ061-075-076-078-094-096-097-190100-
SOUTH MIDDLE TENNESSEE
  
CITY           SKY/WX    TMP DP  RH WIND       PRES   REMARKS
LAWRENCEBURG   CLEAR     37  25  60 N13G18    30.35R WCI  29          
LEWISBURG      PTCLDY    37  25  60 N12       30.38R WCI  30          
FAYETTEVILLE   CLEAR     39  28  65 N15G23    30.33R WCI  31          
TULLAHOMA      CLEAR     36  27  69 N15       30.35R WCI  26          
WINCHESTER     CLEAR     39  28  65 N13       30.34R WCI  32          
MCMINNVILLE    PTCLDY    36  25  64 N8        30.39R WCI  29          
COLUMBIA       CLEAR     39  25  56 N8        30.38R WCI  34          
SHELBYVILLE    CLEAR     36  27  69 N13       30.40R WCI  27          
$$

TNZ017-018-042-046-047-190100-
NORTHEAST TENNESSEE
  
CITY           SKY/WX    TMP DP  RH WIND       PRES   REMARKS
TRI CITIES     MOCLDY    41  27  57 NW10      30.31R                  
ELIZABETHTON   FAIR      43  25  49 W7G15     30.29R                  
GREENEVILLE    CLEAR     41  27  56 NW7G13    30.31R                  
$$

TNZ012-013-036-069-073-074-190100-
CENTRAL EAST TENNESSEE
  
CITY           SKY/WX    TMP DP  RH WIND       PRES   REMARKS
KNOXVILLE      MOCLDY    43  27  53 N9        30.33R                  
OAK RIDGE      FAIR      41  26  55 VRB6      30.36R                  
DOWNTOWN KNOXV CLEAR     43  28  56 CALM      30.36R                  
GATLINBURG     PTCLDY    45  28  53 N8        30.34R                  
MORRISTOWN     CLEAR     37  27  65 N13G20    30.33R WCI  29          
JACKSBORO      PTCLDY    36  25  64 N5        30.41R WCI  32          
$$

TNZ083-085-099-190100-
SOUTHEAST TENNESSEE
  
CITY           SKY/WX    TMP DP  RH WIND       PRES   REMARKS
CHATTANOOGA    MOCLDY    45  29  53 N13       30.33R                  
DAYTON         CLEAR     43  32  65 N9        30.34R                  
$$

SKY/WX REPORTED AS FAIR MEANS FEW OR NO CLOUDS BELOW
12 THOUSAND FEET.